TimeCDT,TemperatureF,Dew PointF,Humidity,Sea Level PressureIn,VisibilityMPH,Wind Direction,Wind SpeedMPH,Gust SpeedMPH,PrecipitationIn,Events,Conditions,WindDirDegrees,DateUTC
12:58 AM,66.6,60.6,81,29.74,10.0,SSE,10.4,-,N/A,,Overcast,150,2013-04-09 05:58:00
1:58 AM,65.3,60.8,85,29.73,10.0,SE,9.2,-,N/A,,Mostly Cloudy,140,2013-04-09 06:58:00
2:58 AM,64.9,61.7,89,29.69,10.0,SE,9.2,-,N/A,,Overcast,140,2013-04-09 07:58:00
3:58 AM,65.8,61.5,86,29.69,10.0,SE,10.4,-,N/A,,Overcast,140,2013-04-09 08:58:00
4:58 AM,65.8,61.7,86,29.69,10.0,SSE,11.5,-,N/A,,Overcast,150,2013-04-09 09:58:00
5:58 AM,65.8,61.3,85,29.70,10.0,South,8.1,-,N/A,,Overcast,170,2013-04-09 10:58:00
6:58 AM,66.4,61.2,83,29.73,10.0,South,15.0,-,N/A,,Overcast,180,2013-04-09 11:58:00
7:58 AM,66.6,60.6,81,29.75,10.0,South,17.3,-,N/A,,Overcast,170,2013-04-09 12:58:00
8:58 AM,67.3,60.4,79,29.75,10.0,South,12.7,20.7,N/A,,Overcast,170,2013-04-09 13:58:00
9:58 AM,68.0,60.1,76,29.75,10.0,South,16.1,-,N/A,,Overcast,170,2013-04-09 14:58:00
10:58 AM,67.6,60.6,78,29.81,10.0,South,11.5,-,N/A,,Overcast,180,2013-04-09 15:58:00
11:58 AM,68.4,60.8,77,29.82,10.0,South,8.1,-,N/A,,Overcast,170,2013-04-09 16:58:00
12:58 PM,67.3,63.1,87,29.81,10.0,SSE,4.6,-,N/A,,Mostly Cloudy,150,2013-04-09 17:58:00
1:58 PM,70.9,64.0,79,29.79,10.0,South,15.0,20.7,N/A,,Mostly Cloudy,180,2013-04-09 18:58:00
2:58 PM,71.2,63.1,75,29.78,10.0,SSE,15.0,-,N/A,,Overcast,160,2013-04-09 19:58:00
3:58 PM,71.6,63.7,76,29.74,10.0,SSE,13.8,-,N/A,,Mostly Cloudy,160,2013-04-09 20:58:00
4:58 PM,73.4,64.6,74,29.73,10.0,SSE,15.0,-,N/A,,Overcast,150,2013-04-09 21:58:00
5:58 PM,73.9,64.4,72,29.73,10.0,SSE,16.1,21.9,N/A,,Overcast,150,2013-04-09 22:58:00
6:58 PM,72.0,64.0,76,29.74,10.0,SSE,9.2,-,N/A,,Overcast,160,2013-04-09 23:58:00
7:58 PM,70.9,64.0,79,29.75,10.0,SE,5.8,-,N/A,,Overcast,140,2013-04-10 00:58:00
8:58 PM,70.0,64.8,83,29.74,10.0,SE,6.9,-,N/A,,Overcast,140,2013-04-10 01:58:00
9:58 PM,68.7,65.7,90,29.75,10.0,ESE,5.8,-,N/A,,Overcast,120,2013-04-10 02:58:00
10:58 PM,70.3,63.7,79,29.69,10.0,SSE,11.5,-,N/A,,Overcast,150,2013-04-10 03:58:00
11:58 PM,71.2,61.5,71,29.70,10.0,SSE,11.5,-,N/A,,Mostly Cloudy,160,2013-04-10 04:58:00